Time,TemperatureF,DewpointF,PressureIn,WindDirection,WindDirectionDegrees,WindSpeedMPH,WindSpeedGustMPH,Humidity,HourlyPrecipIn,Conditions,Clouds,dailyrainin,SoftwareType,DateUTC
2013-04-28 00:09:00,39.6,32.9,30.28,NW,315,0.0,0.0,77,0.00,CLR,,0.00,WeatherDisplay:10.37,2013-04-28 04:09:00,
2013-04-28 00:10:00,39.6,32.9,30.28,SSW,202,0.2,0.2,77,0.00,CLR,,0.00,WeatherDisplay:10.37,2013-04-28 04:10:00,
2013-04-28 00:11:00,39.6,32.9,30.29,SSW,202,0.0,0.0,77,0.00,CLR,,0.00,WeatherDisplay:10.37,2013-04-28 04:11:00,
2013-04-28 00:16:00,39.4,32.8,30.28,SSW,202,0.0,0.0,77,0.00,CLR,,0.00,WeatherDisplay:10.37,2013-04-28 04:16:00,
2013-04-28 00:21:00,39.4,33.1,30.28,SSW,202,0.0,0.0,78,0.00,CLR,,0.00,WeatherDisplay:10.37,2013-04-28 04:21:00,
2013-04-28 00:26:00,39.2,32.9,30.28,SSW,202,0.0,0.0,78,0.00,CLR,,0.00,WeatherDisplay:10.37,2013-04-28 04:26:00,
2013-04-28 00:31:00,39.2,32.9,30.28,SSW,202,0.0,0.0,78,0.00,CLR,,0.00,WeatherDisplay:10.37,2013-04-28 04:31:00,
2013-04-28 00:36:00,39.2,33.2,30.28,SSW,202,0.0,0.0,79,0.00,CLR,,0.00,WeatherDisplay:10.37,2013-04-28 04:36:00,
2013-04-28 00:41:00,39.2,33.2,30.28,SW,225,0.0,0.0,79,0.00,CLR,,0.00,WeatherDisplay:10.37,2013-04-28 04:41:00,
2013-04-28 00:46:00,39.2,33.2,30.28,SW,225,0.0,0.0,79,0.00,CLR,,0.00,WeatherDisplay:10.37,2013-04-28 04:46:00,
2013-04-28 00:51:00,39.2,33.2,30.28,SW,225,0.0,0.0,79,0.00,CLR,,0.00,WeatherDisplay:10.37,2013-04-28 04:51:00,
2013-04-28 00:56:00,39.2,33.2,30.27,SW,225,0.0,0.0,79,0.00,CLR,,0.00,WeatherDisplay:10.37,2013-04-28 04:56:00,
2013-04-28 01:01:00,39.2,33.2,30.28,SW,225,0.0,0.0,79,0.00,CLR,,0.00,WeatherDisplay:10.37,2013-04-28 05:01:00,
2013-04-28 01:06:00,39.2,33.2,30.27,SW,225,0.0,0.0,79,0.00,CLR,,0.00,WeatherDisplay:10.37,2013-04-28 05:06:00,
2013-04-28 01:11:00,39.0,33.1,30.27,SW,225,0.0,0.0,79,0.00,CLR,,0.00,WeatherDisplay:10.37,2013-04-28 05:11:00,
2013-04-28 01:16:00,39.0,33.1,30.27,SW,225,0.0,0.0,79,0.00,CLR,,0.00,WeatherDisplay:10.37,2013-04-28 05:16:00,
2013-04-28 01:21:00,38.8,32.9,30.27,SW,225,0.0,0.0,79,0.00,CLR,,0.00,WeatherDisplay:10.37,2013-04-28 05:21:00,
2013-04-28 01:26:00,38.8,32.9,30.27,SW,225,0.0,0.0,79,0.00,CLR,,0.00,WeatherDisplay:10.37,2013-04-28 05:26:00,
2013-04-28 01:31:00,38.8,32.9,30.27,SW,225,0.0,0.0,79,0.00,CLR,,0.00,WeatherDisplay:10.37,2013-04-28 05:31:00,
2013-04-28 01:36:00,38.7,32.7,30.26,SW,225,0.0,0.0,79,0.00,CLR,,0.00,WeatherDisplay:10.37,2013-04-28 05:36:00,
2013-04-28 01:41:00,38.7,32.7,30.27,SW,225,0.0,0.0,79,0.00,CLR,,0.00,WeatherDisplay:10.37,2013-04-28 05:41:00,
2013-04-28 01:46:00,38.5,32.5,30.27,SW,225,0.0,0.0,79,0.00,CLR,,0.00,WeatherDisplay:10.37,2013-04-28 05:46:00,
2013-04-28 01:51:00,38.5,32.5,30.26,SW,225,0.0,0.0,79,0.00,CLR,,0.00,WeatherDisplay:10.37,2013-04-28 05:51:00,
2013-04-28 01:56:00,38.3,32.4,30.26,SW,225,0.0,0.0,79,0.00,CLR,,0.00,WeatherDisplay:10.37,2013-04-28 05:56:00,
2013-04-28 02:01:00,38.1,32.2,30.26,SW,225,0.0,0.0,79,0.00,CLR,,0.00,WeatherDisplay:10.37,2013-04-28 06:01:00,
2013-04-28 02:06:00,38.1,32.2,30.26,SW,225,0.0,0.0,79,0.00,CLR,,0.00,WeatherDisplay:10.37,2013-04-28 06:06:00,
2013-04-28 02:11:00,37.9,32.0,30.26,SW,225,0.5,0.5,79,0.00,CLR,,0.00,WeatherDisplay:10.37,2013-04-28 06:11:00,
2013-04-28 02:16:00,37.8,32.1,30.26,SW,225,0.0,0.0,80,0.00,CLR,,0.00,WeatherDisplay:10.37,2013-04-28 06:16:00,
2013-04-28 02:21:00,37.6,32.0,30.26,SW,225,0.0,0.0,80,0.00,CLR,,0.00,WeatherDisplay:10.37,2013-04-28 06:21:00,
2013-04-28 02:26:00,37.4,31.8,30.26,SW,225,0.0,0.0,80,0.00,CLR,,0.00,WeatherDisplay:10.37,2013-04-28 06:26:00,
2013-04-28 02:31:00,37.4,31.8,30.26,SW,225,0.0,0.0,80,0.00,CLR,,0.00,WeatherDisplay:10.37,2013-04-28 06:31:00,
2013-04-28 02:36:00,37.0,31.4,30.26,SW,225,0.0,0.0,80,0.00,CLR,,0.00,WeatherDisplay:10.37,2013-04-28 06:36:00,
2013-04-28 02:41:00,37.0,31.4,30.26,SW,225,0.0,0.0,80,0.00,CLR,,0.00,WeatherDisplay:10.37,2013-04-28 06:41:00,
2013-04-28 02:46:00,36.9,31.3,30.26,SW,225,0.0,0.0,80,0.00,CLR,,0.00,WeatherDisplay:10.37,2013-04-28 06:46:00,
2013-04-28 02:51:00,36.9,31.3,30.25,SW,225,0.0,0.0,80,0.00,CLR,,0.00,WeatherDisplay:10.37,2013-04-28 06:51:00,
2013-04-28 02:56:00,36.7,31.1,30.25,SW,225,0.0,0.0,80,0.00,CLR,,0.00,WeatherDisplay:10.37,2013-04-28 06:56:00,
2013-04-28 03:01:00,36.5,30.9,30.25,SW,225,0.0,0.0,80,0.00,CLR,,0.00,WeatherDisplay:10.37,2013-04-28 07:01:00,
2013-04-28 03:06:00,36.5,30.9,30.25,SW,225,0.0,0.0,80,0.00,CLR,,0.00,WeatherDisplay:10.37,2013-04-28 07:06:00,
2013-04-28 03:11:00,36.3,30.7,30.25,SW,225,0.0,0.0,80,0.00,CLR,,0.00,WeatherDisplay:10.37,2013-04-28 07:11:00,
2013-04-28 03:16:00,36.3,30.7,30.25,SW,225,0.0,0.0,80,0.00,CLR,,0.00,WeatherDisplay:10.37,2013-04-28 07:16:00,
2013-04-28 03:21:00,36.1,30.9,30.25,SW,225,0.0,0.0,81,0.00,CLR,,0.00,WeatherDisplay:10.37,2013-04-28 07:21:00,
2013-04-28 03:26:00,36.0,30.7,30.25,SW,225,0.0,0.0,81,0.00,CLR,,0.00,WeatherDisplay:10.37,2013-04-28 07:26:00,
2013-04-28 03:31:00,36.0,30.7,30.25,SW,225,0.0,0.0,81,0.00,CLR,,0.00,WeatherDisplay:10.37,2013-04-28 07:31:00,
2013-04-28 03:36:00,35.8,30.5,30.25,SW,225,0.0,0.0,81,0.00,CLR,,0.00,WeatherDisplay:10.37,2013-04-28 07:36:00,
2013-04-28 03:41:00,35.8,30.5,30.25,SW,225,0.0,0.0,81,0.00,CLR,,0.00,WeatherDisplay:10.37,2013-04-28 07:41:00,
2013-04-28 03:46:00,35.6,30.3,30.25,SW,225,0.0,0.0,81,0.00,CLR,,0.00,WeatherDisplay:10.37,2013-04-28 07:46:00,
2013-04-28 03:51:00,35.6,30.3,30.25,SW,225,0.0,0.0,81,0.00,CLR,,0.00,WeatherDisplay:10.37,2013-04-28 07:51:00,
2013-04-28 03:56:00,35.6,30.3,30.25,SW,225,0.0,0.0,81,0.00,CLR,,0.00,WeatherDisplay:10.37,2013-04-28 07:56:00,
2013-04-28 04:01:00,35.4,30.5,30.25,SW,225,0.0,0.0,82,0.00,CLR,,0.00,WeatherDisplay:10.37,2013-04-28 08:01:00,
2013-04-28 04:06:00,35.4,30.5,30.25,SW,225,0.0,0.0,82,0.00,CLR,,0.00,WeatherDisplay:10.37,2013-04-28 08:06:00,
2013-04-28 04:11:00,35.2,30.3,30.25,SW,225,0.0,0.0,82,0.00,CLR,,0.00,WeatherDisplay:10.37,2013-04-28 08:11:00,
2013-04-28 04:16:00,35.2,30.3,30.25,SW,225,0.0,0.0,82,0.00,CLR,,0.00,WeatherDisplay:10.37,2013-04-28 08:16:00,
2013-04-28 04:21:00,35.2,30.3,30.25,SW,225,0.0,0.0,82,0.00,CLR,,0.00,WeatherDisplay:10.37,2013-04-28 08:21:00,
2013-04-28 04:26:00,35.1,30.1,30.25,SW,225,0.0,0.0,82,0.00,CLR,,0.00,WeatherDisplay:10.37,2013-04-28 08:26:00,
2013-04-28 04:31:00,35.1,30.1,30.25,SW,225,0.0,0.0,82,0.00,CLR,,0.00,WeatherDisplay:10.37,2013-04-28 08:31:00,
2013-04-28 04:36:00,34.9,29.9,30.25,SW,225,0.0,0.0,82,0.00,CLR,,0.00,WeatherDisplay:10.37,2013-04-28 08:36:00,
2013-04-28 04:41:00,34.9,29.9,30.25,SW,225,0.5,0.0,82,0.00,CLR,,0.00,WeatherDisplay:10.37,2013-04-28 08:41:00,
2013-04-28 04:46:00,34.9,29.9,30.25,SW,225,0.0,0.0,82,0.00,CLR,,0.00,WeatherDisplay:10.37,2013-04-28 08:46:00,
2013-04-28 04:51:00,34.7,29.8,30.25,SW,225,0.0,0.0,82,0.00,CLR,,0.00,WeatherDisplay:10.37,2013-04-28 08:51:00,
2013-04-28 04:56:00,34.7,29.8,30.25,SW,225,0.5,1.1,82,0.00,CLR,,0.00,WeatherDisplay:10.37,2013-04-28 08:56:00,
2013-04-28 05:01:00,34.5,29.9,30.25,SW,225,0.0,0.0,83,0.00,CLR,,0.00,WeatherDisplay:10.37,2013-04-28 09:01:00,
2013-04-28 05:06:00,34.3,29.7,30.25,SW,225,0.0,0.0,83,0.00,CLR,,0.00,WeatherDisplay:10.37,2013-04-28 09:06:00,
2013-04-28 05:11:00,34.3,29.7,30.25,SW,225,0.0,0.0,83,0.00,CLR,,0.00,WeatherDisplay:10.37,2013-04-28 09:11:00,
2013-04-28 05:16:00,34.2,29.5,30.25,SW,225,0.0,0.0,83,0.00,CLR,,0.00,WeatherDisplay:10.37,2013-04-28 09:16:00,
2013-04-28 05:21:00,34.2,29.5,30.25,SW,225,0.0,0.0,83,0.00,CLR,,0.00,WeatherDisplay:10.37,2013-04-28 09:21:00,
2013-04-28 05:26:00,34.2,29.5,30.25,SW,225,0.0,0.0,83,0.00,CLR,,0.00,WeatherDisplay:10.37,2013-04-28 09:26:00,
2013-04-28 05:31:00,34.2,29.5,30.25,SW,225,0.0,0.0,83,0.00,CLR,,0.00,WeatherDisplay:10.37,2013-04-28 09:31:00,
2013-04-28 05:36:00,34.2,29.5,30.25,SW,225,0.0,0.0,83,0.00,CLR,,0.00,WeatherDisplay:10.37,2013-04-28 09:36:00,
2013-04-28 05:41:00,34.0,29.4,30.25,SW,225,0.0,0.0,83,0.00,CLR,,0.00,WeatherDisplay:10.37,2013-04-28 09:41:00,
2013-04-28 05:46:00,33.8,28.9,30.25,SW,225,0.0,0.0,82,0.00,CLR,,0.00,WeatherDisplay:10.37,2013-04-28 09:46:00,
2013-04-28 05:51:00,33.8,28.9,30.25,SW,225,0.0,0.0,82,0.00,CLR,,0.00,WeatherDisplay:10.37,2013-04-28 09:51:00,
2013-04-28 05:56:00,33.8,28.9,30.25,SW,225,0.0,0.0,82,0.00,CLR,,0.00,WeatherDisplay:10.37,2013-04-28 09:56:00,
2013-04-28 06:01:00,33.8,29.2,30.25,SW,225,0.0,0.0,83,0.00,CLR,,0.00,WeatherDisplay:10.37,2013-04-28 10:01:00,
2013-04-28 06:06:00,34.0,29.7,30.25,SW,225,0.0,0.0,84,0.00,CLR,,0.00,WeatherDisplay:10.37,2013-04-28 10:06:00,
2013-04-28 06:11:00,34.2,29.8,30.26,SW,225,0.0,0.0,84,0.00,CLR,,0.00,WeatherDisplay:10.37,2013-04-28 10:11:00,
2013-04-28 06:16:00,34.3,30.0,30.25,SW,225,0.0,0.0,84,0.00,CLR,,0.00,WeatherDisplay:10.37,2013-04-28 10:16:00,
2013-04-28 06:21:00,34.5,30.2,30.25,SW,225,0.0,0.0,84,0.00,CLR,,0.00,WeatherDisplay:10.37,2013-04-28 10:21:00,
2013-04-28 06:26:00,34.9,30.5,30.25,WNW,292,0.0,0.0,84,0.00,CLR,,0.00,WeatherDisplay:10.37,2013-04-28 10:26:00,
2013-04-28 06:31:00,35.1,30.7,30.25,WNW,292,0.0,0.0,84,0.00,CLR,,0.00,WeatherDisplay:10.37,2013-04-28 10:31:00,
2013-04-28 06:36:00,35.4,31.1,30.26,WNW,292,0.0,0.0,84,0.00,CLR,,0.00,WeatherDisplay:10.37,2013-04-28 10:36:00,
2013-04-28 06:41:00,35.8,31.4,30.26,WNW,292,0.0,0.0,84,0.00,CLR,,0.00,WeatherDisplay:10.37,2013-04-28 10:41:00,
2013-04-28 06:46:00,36.1,31.8,30.26,WNW,292,0.0,0.0,84,0.00,CLR,,0.00,WeatherDisplay:10.37,2013-04-28 10:46:00,
2013-04-28 06:51:00,36.5,32.1,30.26,WNW,292,0.0,0.0,84,0.00,CLR,,0.00,WeatherDisplay:10.37,2013-04-28 10:51:00,
2013-04-28 06:56:00,37.0,32.7,30.26,WNW,292,0.0,0.0,84,0.00,CLR,,0.00,WeatherDisplay:10.37,2013-04-28 10:56:00,
2013-04-28 07:01:00,37.8,33.4,30.27,WNW,292,0.0,0.0,84,0.00,CLR,,0.00,WeatherDisplay:10.37,2013-04-28 11:01:00,
2013-04-28 07:06:00,38.3,34.2,30.26,WNW,292,0.0,0.0,85,0.00,CLR,,0.00,WeatherDisplay:10.37,2013-04-28 11:06:00,
2013-04-28 07:11:00,39.2,35.1,30.26,WSW,248,0.5,0.5,85,0.00,CLR,,0.00,WeatherDisplay:10.37,2013-04-28 11:11:00,
2013-04-28 07:16:00,40.1,36.0,30.27,WSW,248,0.0,0.0,85,0.00,CLR,,0.00,WeatherDisplay:10.37,2013-04-28 11:16:00,
2013-04-28 07:21:00,41.0,36.8,30.27,SSE,158,0.5,0.5,85,0.00,CLR,,0.00,WeatherDisplay:10.37,2013-04-28 11:21:00,
2013-04-28 07:26:00,41.7,37.8,30.27,SSE,158,0.5,1.1,86,0.00,CLR,,0.00,WeatherDisplay:10.37,2013-04-28 11:26:00,
2013-04-28 07:31:00,42.8,38.6,30.27,SSE,158,0.0,1.1,85,0.00,CLR,,0.00,WeatherDisplay:10.37,2013-04-28 11:31:00,
2013-04-28 07:36:00,44.1,40.1,30.27,SE,135,1.4,2.3,86,0.00,CLR,,0.00,WeatherDisplay:10.37,2013-04-28 11:36:00,
2013-04-28 07:41:00,45.3,41.4,30.27,SSE,158,2.4,3.5,86,0.00,CLR,,0.00,WeatherDisplay:10.37,2013-04-28 11:41:00,
2013-04-28 07:46:00,46.4,42.1,30.27,South,180,3.6,3.6,85,0.00,CLR,,0.00,WeatherDisplay:10.37,2013-04-28 11:46:00,
2013-04-28 07:51:00,47.7,43.1,30.27,SSE,158,1.1,2.3,84,0.00,CLR,,0.00,WeatherDisplay:10.37,2013-04-28 11:51:00,
2013-04-28 07:56:00,48.6,43.6,30.27,ESE,112,0.9,2.3,83,0.00,CLR,,0.00,WeatherDisplay:10.37,2013-04-28 11:56:00,
2013-04-28 08:01:00,49.5,44.2,30.27,NNW,338,0.7,1.1,82,0.00,CLR,,0.00,WeatherDisplay:10.37,2013-04-28 12:01:00,
2013-04-28 08:06:00,50.2,43.9,30.28,SE,135,3.3,3.3,79,0.00,CLR,,0.00,WeatherDisplay:10.37,2013-04-28 12:06:00,
2013-04-28 08:11:00,50.7,44.4,30.27,ENE,68,0.7,1.1,79,0.00,CLR,,0.00,WeatherDisplay:10.37,2013-04-28 12:11:00,
2013-04-28 08:16:00,51.4,44.5,30.28,SSW,202,0.7,2.3,77,0.00,CLR,,0.00,WeatherDisplay:10.37,2013-04-28 12:16:00,
2013-04-28 08:21:00,51.8,44.8,30.28,SSW,202,1.8,3.5,77,0.00,CLR,,0.00,WeatherDisplay:10.37,2013-04-28 12:21:00,
2013-04-28 08:26:00,52.5,45.2,30.28,SSE,158,2.6,2.6,76,0.00,CLR,,0.00,WeatherDisplay:10.37,2013-04-28 12:26:00,
2013-04-28 08:31:00,53.1,45.3,30.28,SE,135,2.2,2.3,75,0.00,CLR,,0.00,WeatherDisplay:10.37,2013-04-28 12:31:00,
2013-04-28 08:36:00,53.4,45.3,30.28,SSE,158,0.0,1.1,74,0.00,CLR,,0.00,WeatherDisplay:10.37,2013-04-28 12:36:00,
2013-04-28 08:41:00,53.8,45.7,30.28,SSE,158,1.6,2.3,74,0.00,CLR,,0.00,WeatherDisplay:10.37,2013-04-28 12:41:00,
2013-04-28 08:46:00,54.5,46.4,30.28,SSE,158,2.4,2.4,74,0.00,CLR,,0.00,WeatherDisplay:10.37,2013-04-28 12:46:00,
2013-04-28 08:51:00,55.0,46.5,30.28,SE,135,2.0,2.3,73,0.00,CLR,,0.00,WeatherDisplay:10.37,2013-04-28 12:51:00,
2013-04-28 08:56:00,55.8,47.2,30.28,SW,225,1.6,3.5,73,0.00,CLR,,0.00,WeatherDisplay:10.37,2013-04-28 12:56:00,
2013-04-28 09:01:00,56.3,47.4,30.29,SSE,158,1.6,2.3,72,0.00,CLR,,0.00,WeatherDisplay:10.37,2013-04-28 13:01:00,
2013-04-28 09:06:00,56.8,47.5,30.29,SW,225,1.8,2.3,71,0.00,CLR,,0.00,WeatherDisplay:10.37,2013-04-28 13:06:00,
2013-04-28 09:11:00,57.6,48.2,30.29,SSW,202,3.3,3.5,71,0.00,CLR,,0.00,WeatherDisplay:10.37,2013-04-28 13:11:00,
2013-04-28 09:16:00,58.3,48.2,30.29,SW,225,2.9,3.5,69,0.00,CLR,,0.00,WeatherDisplay:10.37,2013-04-28 13:16:00,
2013-04-28 09:21:00,58.5,48.3,30.29,SSW,202,0.5,2.3,69,0.00,CLR,,0.00,WeatherDisplay:10.37,2013-04-28 13:21:00,
2013-04-28 09:26:00,58.8,48.7,30.29,SSW,202,2.2,3.5,69,0.00,CLR,,0.00,WeatherDisplay:10.37,2013-04-28 13:26:00,
2013-04-28 09:31:00,59.2,48.2,30.30,SSW,202,3.1,3.5,67,0.00,CLR,,0.00,WeatherDisplay:10.37,2013-04-28 13:31:00,
2013-04-28 09:36:00,59.5,48.6,30.30,WSW,248,3.8,3.8,67,0.00,CLR,,0.00,WeatherDisplay:10.37,2013-04-28 13:36:00,
2013-04-28 09:41:00,59.9,48.5,30.30,SW,225,1.1,2.3,66,0.00,CLR,,0.00,WeatherDisplay:10.37,2013-04-28 13:41:00,
2013-04-28 09:46:00,60.1,48.7,30.30,SSW,202,4.0,5.8,66,0.00,CLR,,0.00,WeatherDisplay:10.37,2013-04-28 13:46:00,
2013-04-28 09:51:00,59.9,47.7,30.30,SSW,202,3.8,5.8,64,0.00,CLR,,0.00,WeatherDisplay:10.37,2013-04-28 13:51:00,
2013-04-28 09:56:00,60.1,48.7,30.30,SW,225,1.8,3.5,66,0.00,CLR,,0.00,WeatherDisplay:10.37,2013-04-28 13:56:00,
2013-04-28 10:01:00,60.6,48.8,30.30,NW,315,1.4,1.4,65,0.00,CLR,,0.00,WeatherDisplay:10.37,2013-04-28 14:01:00,
2013-04-28 10:06:00,61.2,48.9,30.30,South,180,1.8,3.5,64,0.00,CLR,,0.00,WeatherDisplay:10.37,2013-04-28 14:06:00,
2013-04-28 10:11:00,61.2,48.9,30.30,SSW,202,2.4,3.5,64,0.00,CLR,,0.00,WeatherDisplay:10.37,2013-04-28 14:11:00,
2013-04-28 10:16:00,61.2,48.0,30.30,South,180,1.4,2.3,62,0.00,CLR,,0.00,WeatherDisplay:10.37,2013-04-28 14:16:00,
2013-04-28 10:21:00,61.5,47.5,30.30,SW,225,2.4,2.4,60,0.00,CLR,,0.00,WeatherDisplay:10.37,2013-04-28 14:21:00,
2013-04-28 10:26:00,62.1,47.1,30.29,SSW,202,5.6,5.8,58,0.00,CLR,,0.00,WeatherDisplay:10.37,2013-04-28 14:26:00,
2013-04-28 10:31:00,62.4,47.0,30.30,SSW,202,1.1,3.5,57,0.00,CLR,,0.00,WeatherDisplay:10.37,2013-04-28 14:31:00,
2013-04-28 10:36:00,62.8,47.3,30.30,SW,225,4.0,4.6,57,0.00,CLR,,0.00,WeatherDisplay:10.37,2013-04-28 14:36:00,
2013-04-28 10:41:00,63.3,47.3,30.30,SSW,202,3.3,5.8,56,0.00,CLR,,0.00,WeatherDisplay:10.37,2013-04-28 14:41:00,
2013-04-28 10:46:00,63.5,46.6,30.29,South,180,2.4,2.4,54,0.00,CLR,,0.00,WeatherDisplay:10.37,2013-04-28 14:46:00,
2013-04-28 10:51:00,64.0,47.5,30.30,SW,225,3.1,3.1,55,0.00,CLR,,0.00,WeatherDisplay:10.37,2013-04-28 14:51:00,
2013-04-28 10:56:00,63.9,46.4,30.29,WSW,248,1.6,2.3,53,0.00,CLR,,0.00,WeatherDisplay:10.37,2013-04-28 14:56:00,
2013-04-28 11:01:00,64.0,45.0,30.29,WSW,248,3.1,3.1,50,0.00,CLR,,0.00,WeatherDisplay:10.37,2013-04-28 15:01:00,
2013-04-28 11:06:00,64.2,45.7,30.29,South,180,3.3,5.8,51,0.00,CLR,,0.00,WeatherDisplay:10.37,2013-04-28 15:06:00,
2013-04-28 11:11:00,64.2,43.0,30.29,South,180,4.7,5.8,46,0.00,CLR,,0.00,WeatherDisplay:10.37,2013-04-28 15:11:00,
2013-04-28 11:16:00,64.4,44.8,30.29,South,180,1.4,4.6,49,0.00,CLR,,0.00,WeatherDisplay:10.37,2013-04-28 15:16:00,
2013-04-28 11:21:00,64.4,45.3,30.29,SSE,158,5.6,5.6,50,0.00,CLR,,0.00,WeatherDisplay:10.37,2013-04-28 15:21:00,
2013-04-28 11:26:00,64.4,43.7,30.29,SSW,202,4.3,5.8,47,0.00,CLR,,0.00,WeatherDisplay:10.37,2013-04-28 15:26:00,
2013-04-28 11:31:00,64.8,45.1,30.29,SE,135,3.3,6.9,49,0.00,CLR,,0.00,WeatherDisplay:10.37,2013-04-28 15:31:00,
2013-04-28 11:36:00,64.8,45.1,30.29,SSW,202,4.0,4.6,49,0.00,CLR,,0.00,WeatherDisplay:10.37,2013-04-28 15:36:00,
2013-04-28 11:41:00,64.4,44.3,30.29,South,180,4.7,4.7,48,0.00,CLR,,0.00,WeatherDisplay:10.37,2013-04-28 15:41:00,
2013-04-28 11:46:00,64.4,44.3,30.29,SE,135,2.9,4.6,48,0.00,CLR,,0.00,WeatherDisplay:10.37,2013-04-28 15:46:00,
2013-04-28 11:51:00,64.4,43.7,30.29,SSE,158,2.4,8.1,47,0.00,CLR,,0.00,WeatherDisplay:10.37,2013-04-28 15:51:00,
2013-04-28 11:56:00,64.4,44.3,30.29,South,180,2.2,4.6,48,0.00,CLR,,0.00,WeatherDisplay:10.37,2013-04-28 15:56:00,
2013-04-28 12:01:00,64.2,43.6,30.28,SSE,158,2.2,6.9,47,0.00,CLR,,0.00,WeatherDisplay:10.37,2013-04-28 16:01:00,
2013-04-28 12:06:00,64.4,44.3,30.28,SSE,158,4.3,8.1,48,0.00,CLR,,0.00,WeatherDisplay:10.37,2013-04-28 16:06:00,
2013-04-28 12:11:00,64.4,43.2,30.28,SE,135,4.0,4.6,46,0.00,CLR,,0.00,WeatherDisplay:10.37,2013-04-28 16:11:00,
2013-04-28 12:16:00,64.6,43.3,30.28,SSE,158,5.4,6.9,46,0.00,CLR,,0.00,WeatherDisplay:10.37,2013-04-28 16:16:00,
2013-04-28 12:21:00,64.4,43.2,30.28,SE,135,4.9,5.8,46,0.00,CLR,,0.00,WeatherDisplay:10.37,2013-04-28 16:21:00,
2013-04-28 12:26:00,64.4,42.6,30.28,SSE,158,6.7,6.7,45,0.00,CLR,,0.00,WeatherDisplay:10.37,2013-04-28 16:26:00,
2013-04-28 12:31:00,64.4,42.6,30.27,South,180,5.9,8.1,45,0.00,CLR,,0.00,WeatherDisplay:10.37,2013-04-28 16:31:00,
2013-04-28 12:36:00,64.2,41.8,30.27,SE,135,6.9,6.9,44,0.00,CLR,,0.00,WeatherDisplay:10.37,2013-04-28 16:36:00,
2013-04-28 12:41:00,64.4,43.7,30.27,South,180,4.0,5.8,47,0.00,CLR,,0.00,WeatherDisplay:10.37,2013-04-28 16:41:00,
2013-04-28 12:46:00,64.8,44.1,30.27,SSW,202,5.2,5.2,47,0.00,CLR,,0.00,WeatherDisplay:10.37,2013-04-28 16:46:00,
2013-04-28 12:51:00,64.8,42.9,30.27,SSE,158,5.2,5.2,45,0.00,CLR,,0.00,WeatherDisplay:10.37,2013-04-28 16:51:00,
2013-04-28 12:56:00,64.8,43.5,30.27,South,180,6.0,6.0,46,0.00,CLR,,0.00,WeatherDisplay:10.37,2013-04-28 16:56:00,
2013-04-28 13:01:00,64.6,42.2,30.27,ESE,112,4.7,9.2,44,0.00,CLR,,0.00,WeatherDisplay:10.37,2013-04-28 17:01:00,
2013-04-28 13:06:00,64.4,42.6,30.27,SSE,158,0.5,4.6,45,0.00,CLR,,0.00,WeatherDisplay:10.37,2013-04-28 17:06:00,
2013-04-28 13:11:00,64.4,43.7,30.27,South,180,2.6,4.6,47,0.00,CLR,,0.00,WeatherDisplay:10.37,2013-04-28 17:11:00,
2013-04-28 13:16:00,64.4,42.6,30.27,SSE,158,7.8,8.1,45,0.00,CLR,,0.00,WeatherDisplay:10.37,2013-04-28 17:16:00,
2013-04-28 13:21:00,64.4,43.7,30.27,SSW,202,3.1,6.9,47,0.00,CLR,,0.00,WeatherDisplay:10.37,2013-04-28 17:21:00,
2013-04-28 13:26:00,64.4,44.3,30.26,SSW,202,6.9,6.9,48,0.00,CLR,,0.00,WeatherDisplay:10.37,2013-04-28 17:26:00,
2013-04-28 13:31:00,64.2,43.6,30.27,SSE,158,6.0,8.1,47,0.00,CLR,,0.00,WeatherDisplay:10.37,2013-04-28 17:31:00,
2013-04-28 13:36:00,63.9,44.3,30.27,SSE,158,4.0,6.9,49,0.00,CLR,,0.00,WeatherDisplay:10.37,2013-04-28 17:36:00,
2013-04-28 13:41:00,63.9,44.3,30.27,SSE,158,2.6,6.9,49,0.00,CLR,,0.00,WeatherDisplay:10.37,2013-04-28 17:41:00,
2013-04-28 13:46:00,64.0,45.0,30.27,SSE,158,6.2,6.2,50,0.00,CLR,,0.00,WeatherDisplay:10.37,2013-04-28 17:46:00,
2013-04-28 13:51:00,64.2,45.2,30.27,SSE,158,6.2,8.1,50,0.00,CLR,,0.00,WeatherDisplay:10.37,2013-04-28 17:51:00,
2013-04-28 13:56:00,64.0,45.5,30.27,SE,135,2.6,5.8,51,0.00,CLR,,0.00,WeatherDisplay:10.37,2013-04-28 17:56:00,
2013-04-28 14:01:00,64.0,44.5,30.27,ESE,112,5.4,8.1,49,0.00,CLR,,0.00,WeatherDisplay:10.37,2013-04-28 18:01:00,
2013-04-28 14:06:00,63.7,44.2,30.26,ESE,112,5.4,5.4,49,0.00,CLR,,0.00,WeatherDisplay:10.37,2013-04-28 18:06:00,
2013-04-28 14:11:00,63.5,44.0,30.26,South,180,3.8,8.1,49,0.00,CLR,,0.00,WeatherDisplay:10.37,2013-04-28 18:11:00,
2013-04-28 14:16:00,63.7,45.7,30.26,South,180,3.3,4.6,52,0.00,CLR,,0.00,WeatherDisplay:10.37,2013-04-28 18:16:00,
2013-04-28 14:21:00,63.9,45.4,30.26,South,180,7.1,8.1,51,0.00,CLR,,0.00,WeatherDisplay:10.37,2013-04-28 18:21:00,
2013-04-28 14:26:00,63.7,45.2,30.26,ESE,112,4.7,8.1,51,0.00,CLR,,0.00,WeatherDisplay:10.37,2013-04-28 18:26:00,
2013-04-28 14:31:00,63.3,44.9,30.26,SSE,158,2.6,4.6,51,0.00,CLR,,0.00,WeatherDisplay:10.37,2013-04-28 18:31:00,
2013-04-28 14:36:00,63.7,45.2,30.25,SE,135,1.8,3.5,51,0.00,CLR,,0.00,WeatherDisplay:10.37,2013-04-28 18:36:00,
2013-04-28 14:41:00,64.2,45.7,30.25,SW,225,1.1,3.5,51,0.00,CLR,,0.00,WeatherDisplay:10.37,2013-04-28 18:41:00,
2013-04-28 14:46:00,64.0,46.6,30.25,SSW,202,5.6,5.8,53,0.00,CLR,,0.00,WeatherDisplay:10.37,2013-04-28 18:46:00,
2013-04-28 14:51:00,64.2,45.2,30.25,South,180,2.2,8.1,50,0.00,CLR,,0.00,WeatherDisplay:10.37,2013-04-28 18:51:00,
2013-04-28 14:56:00,64.2,46.2,30.25,SSE,158,6.0,6.9,52,0.00,CLR,,0.00,WeatherDisplay:10.37,2013-04-28 18:56:00,
2013-04-28 15:01:00,63.9,44.9,30.25,SSE,158,3.3,8.1,50,0.00,CLR,,0.00,WeatherDisplay:10.37,2013-04-28 19:01:00,
2013-04-28 15:06:00,63.9,45.9,30.25,SE,135,4.5,5.8,52,0.00,CLR,,0.00,WeatherDisplay:10.37,2013-04-28 19:06:00,
2013-04-28 15:11:00,63.5,45.0,30.25,South,180,5.4,5.4,51,0.00,CLR,,0.00,WeatherDisplay:10.37,2013-04-28 19:11:00,
2013-04-28 15:16:00,63.3,45.4,30.25,SSW,202,6.9,6.9,52,0.00,CLR,,0.00,WeatherDisplay:10.37,2013-04-28 19:16:00,
2013-04-28 15:21:00,63.1,45.2,30.25,South,180,2.9,6.9,52,0.00,CLR,,0.00,WeatherDisplay:10.37,2013-04-28 19:21:00,
2013-04-28 15:26:00,63.1,45.7,30.24,SSE,158,6.7,8.1,53,0.00,CLR,,0.00,WeatherDisplay:10.37,2013-04-28 19:26:00,
2013-04-28 15:31:00,62.6,45.2,30.24,SSW,202,4.9,6.9,53,0.00,CLR,,0.00,WeatherDisplay:10.37,2013-04-28 19:31:00,
2013-04-28 15:37:00,62.4,44.6,30.24,South,180,8.3,10.4,52,0.00,CLR,,0.00,WeatherDisplay:10.37,2013-04-28 19:37:00,
2013-04-28 15:42:00,62.2,45.4,30.24,SSE,158,6.0,10.4,54,0.00,CLR,,0.00,WeatherDisplay:10.37,2013-04-28 19:42:00,
2013-04-28 15:47:00,62.2,45.9,30.24,SSE,158,4.0,8.1,55,0.00,CLR,,0.00,WeatherDisplay:10.37,2013-04-28 19:47:00,
2013-04-28 15:52:00,62.1,45.2,30.24,SSE,158,8.5,9.2,54,0.00,CLR,,0.00,WeatherDisplay:10.37,2013-04-28 19:52:00,
2013-04-28 15:57:00,61.7,45.4,30.24,SE,135,5.9,8.1,55,0.00,CLR,,0.00,WeatherDisplay:10.37,2013-04-28 19:57:00,
2013-04-28 16:02:00,62.1,45.2,30.24,SSW,202,7.4,8.1,54,0.00,CLR,,0.00,WeatherDisplay:10.37,2013-04-28 20:02:00,
2013-04-28 16:07:00,62.2,44.9,30.24,SSW,202,5.6,8.1,53,0.00,CLR,,0.00,WeatherDisplay:10.37,2013-04-28 20:07:00,
2013-04-28 16:12:00,61.9,44.6,30.24,SSW,202,4.0,6.9,53,0.00,CLR,,0.00,WeatherDisplay:10.37,2013-04-28 20:12:00,
2013-04-28 16:17:00,61.9,45.0,30.24,SSW,202,4.0,9.2,54,0.00,CLR,,0.00,WeatherDisplay:10.37,2013-04-28 20:17:00,
2013-04-28 16:22:00,62.2,45.4,30.23,South,180,1.4,4.6,54,0.00,CLR,,0.00,WeatherDisplay:10.37,2013-04-28 20:22:00,
2013-04-28 16:27:00,62.8,44.9,30.23,SSW,202,4.7,4.7,52,0.00,CLR,,0.00,WeatherDisplay:10.37,2013-04-28 20:27:00,
2013-04-28 16:32:00,62.2,42.8,30.23,SSE,158,7.6,9.2,49,0.00,CLR,,0.00,WeatherDisplay:10.37,2013-04-28 20:32:00,
2013-04-28 16:37:00,61.5,41.1,30.23,SE,135,4.3,5.8,47,0.00,CLR,,0.00,WeatherDisplay:10.37,2013-04-28 20:37:00,
2013-04-28 16:42:00,61.3,42.0,30.23,SE,135,5.9,5.9,49,0.00,CLR,,0.00,WeatherDisplay:10.37,2013-04-28 20:42:00,
2013-04-28 16:47:00,61.5,42.7,30.23,SSE,158,8.1,8.1,50,0.00,CLR,,0.00,WeatherDisplay:10.37,2013-04-28 20:47:00,
2013-04-28 16:52:00,61.9,43.0,30.23,SSE,158,4.0,8.1,50,0.00,CLR,,0.00,WeatherDisplay:10.37,2013-04-28 20:52:00,
2013-04-28 16:57:00,63.5,44.0,30.23,South,180,4.3,4.6,49,0.00,CLR,,0.00,WeatherDisplay:10.37,2013-04-28 20:57:00,
2013-04-28 17:02:00,65.5,46.3,30.23,SSE,158,1.1,5.8,50,0.00,CLR,,0.00,WeatherDisplay:10.37,2013-04-28 21:02:00,
2013-04-28 17:07:00,66.9,46.0,30.23,South,180,2.2,5.8,47,0.00,CLR,,0.00,WeatherDisplay:10.37,2013-04-28 21:07:00,
2013-04-28 17:12:00,65.8,45.6,30.23,SSW,202,6.7,6.9,48,0.00,CLR,,0.00,WeatherDisplay:10.37,2013-04-28 21:12:00,
2013-04-28 17:17:00,63.5,44.5,30.23,SSW,202,4.3,6.9,50,0.00,CLR,,0.00,WeatherDisplay:10.37,2013-04-28 21:17:00,
2013-04-28 17:22:00,61.7,44.4,30.23,SW,225,5.6,5.8,53,0.00,CLR,,0.00,WeatherDisplay:10.37,2013-04-28 21:22:00,
2013-04-28 17:27:00,60.3,44.0,30.23,SW,225,5.9,5.9,55,0.00,CLR,,0.00,WeatherDisplay:10.37,2013-04-28 21:27:00,
2013-04-28 17:32:00,59.4,45.0,30.23,SSE,158,2.9,3.5,59,0.00,CLR,,0.00,WeatherDisplay:10.37,2013-04-28 21:32:00,
2013-04-28 17:37:00,58.8,44.1,30.23,SE,135,3.6,4.6,58,0.00,CLR,,0.00,WeatherDisplay:10.37,2013-04-28 21:37:00,
2013-04-28 17:42:00,58.5,44.2,30.23,ESE,112,4.7,6.9,59,0.00,CLR,,0.00,WeatherDisplay:10.37,2013-04-28 21:42:00,
2013-04-28 17:47:00,58.1,43.4,30.23,SSW,202,3.3,4.6,58,0.00,CLR,,0.00,WeatherDisplay:10.37,2013-04-28 21:47:00,
2013-04-28 17:52:00,57.9,43.2,30.23,SSW,202,7.4,7.4,58,0.00,CLR,,0.00,WeatherDisplay:10.37,2013-04-28 21:52:00,
2013-04-28 17:57:00,58.1,43.8,30.23,SSW,202,5.4,5.8,59,0.00,CLR,,0.00,WeatherDisplay:10.37,2013-04-28 21:57:00,
2013-04-28 18:02:00,58.3,44.0,30.23,South,180,1.8,4.6,59,0.00,CLR,,0.00,WeatherDisplay:10.37,2013-04-28 22:02:00,
2013-04-28 18:07:00,57.6,44.2,30.23,South,180,5.9,8.1,61,0.00,CLR,,0.00,WeatherDisplay:10.37,2013-04-28 22:07:00,
2013-04-28 18:12:00,57.0,44.1,30.24,SSW,202,2.4,3.5,62,0.00,CLR,,0.00,WeatherDisplay:10.37,2013-04-28 22:12:00,
2013-04-28 18:17:00,56.5,44.4,30.24,South,180,5.2,5.8,64,0.00,CLR,,0.00,WeatherDisplay:10.37,2013-04-28 22:17:00,
2013-04-28 18:22:00,56.1,44.1,30.23,South,180,1.1,4.6,64,0.00,CLR,,0.00,WeatherDisplay:10.37,2013-04-28 22:22:00,
2013-04-28 18:27:00,55.8,43.8,30.24,South,180,6.2,6.2,64,0.00,CLR,,0.00,WeatherDisplay:10.37,2013-04-28 22:27:00,
2013-04-28 18:32:00,55.6,44.0,30.24,South,180,1.6,4.6,65,0.00,CLR,,0.00,WeatherDisplay:10.37,2013-04-28 22:32:00,
2013-04-28 18:37:00,55.2,44.4,30.23,SW,225,6.4,6.4,67,0.00,CLR,,0.00,WeatherDisplay:10.37,2013-04-28 22:37:00,
2013-04-28 18:42:00,54.9,43.7,30.23,SSW,202,4.9,4.9,66,0.00,CLR,,0.00,WeatherDisplay:10.37,2013-04-28 22:42:00,
2013-04-28 18:47:00,54.7,43.1,30.23,SW,225,2.2,4.6,65,0.00,CLR,,0.00,WeatherDisplay:10.37,2013-04-28 22:47:00,
2013-04-28 18:52:00,54.3,43.2,30.24,SSW,202,6.2,6.9,66,0.00,CLR,,0.00,WeatherDisplay:10.37,2013-04-28 22:52:00,
2013-04-28 18:57:00,54.0,42.9,30.23,SSW,202,3.3,6.0,66,0.00,CLR,,0.00,WeatherDisplay:10.37,2013-04-28 22:57:00,
2013-04-28 19:02:00,53.8,43.5,30.23,SSW,202,6.4,6.9,68,0.00,CLR,,0.00,WeatherDisplay:10.37,2013-04-28 23:02:00,
2013-04-28 19:07:00,53.6,43.7,30.23,SSW,202,2.6,4.6,69,0.00,CLR,,0.00,WeatherDisplay:10.37,2013-04-28 23:07:00,
2013-04-28 19:12:00,53.4,43.5,30.23,South,180,4.0,5.8,69,0.00,CLR,,0.00,WeatherDisplay:10.37,2013-04-28 23:12:00,
2013-04-28 19:17:00,53.2,43.7,30.23,SW,225,4.9,5.8,70,0.00,CLR,,0.00,WeatherDisplay:10.37,2013-04-28 23:17:00,
2013-04-28 19:22:00,52.9,43.4,30.23,SSW,202,1.8,4.6,70,0.00,CLR,,0.00,WeatherDisplay:10.37,2013-04-28 23:22:00,
2013-04-28 19:27:00,52.7,43.2,30.23,SSW,202,4.9,5.8,70,0.00,CLR,,0.00,WeatherDisplay:10.37,2013-04-28 23:27:00,
2013-04-28 19:32:00,52.3,42.8,30.23,SSW,202,8.3,8.3,70,0.00,CLR,,0.00,WeatherDisplay:10.37,2013-04-28 23:32:00,
2013-04-28 19:37:00,52.2,43.4,30.23,SW,225,4.7,5.8,72,0.00,CLR,,0.00,WeatherDisplay:10.37,2013-04-28 23:37:00,
2013-04-28 19:42:00,52.0,43.2,30.23,South,180,1.4,1.4,72,0.00,CLR,,0.00,WeatherDisplay:10.37,2013-04-28 23:42:00,
2013-04-28 19:47:00,51.8,42.3,30.22,SSW,202,1.1,1.1,70,0.00,CLR,,0.00,WeatherDisplay:10.37,2013-04-28 23:47:00,
2013-04-28 19:52:00,51.4,42.3,30.23,SSW,202,0.7,1.1,71,0.00,CLR,,0.00,WeatherDisplay:10.37,2013-04-28 23:52:00,
2013-04-28 19:57:00,51.3,42.2,30.23,SSW,202,2.0,3.5,71,0.00,CLR,,0.00,WeatherDisplay:10.37,2013-04-28 23:57:00,
2013-04-28 20:02:00,51.1,42.4,30.23,SSW,202,1.1,2.3,72,0.00,CLR,,0.00,WeatherDisplay:10.37,2013-04-29 00:02:00,
2013-04-28 20:07:00,50.9,42.2,30.23,South,180,0.7,2.3,72,0.00,CLR,,0.00,WeatherDisplay:10.37,2013-04-29 00:07:00,
2013-04-28 20:12:00,50.7,42.0,30.23,SSW,202,2.6,2.6,72,0.00,CLR,,0.00,WeatherDisplay:10.37,2013-04-29 00:12:00,
2013-04-28 20:17:00,50.5,41.8,30.23,SSW,202,0.7,1.1,72,0.00,CLR,,0.00,WeatherDisplay:10.37,2013-04-29 00:17:00,
2013-04-28 20:22:00,50.2,41.9,30.23,South,180,0.9,1.1,73,0.00,CLR,,0.00,WeatherDisplay:10.37,2013-04-29 00:22:00,
2013-04-28 20:27:00,50.0,42.4,30.23,SW,225,2.6,3.5,75,0.00,CLR,,0.00,WeatherDisplay:10.37,2013-04-29 00:27:00,
2013-04-28 20:32:00,50.0,42.0,30.23,SW,225,2.4,2.4,74,0.00,CLR,,0.00,WeatherDisplay:10.37,2013-04-29 00:32:00,
2013-04-28 20:37:00,49.6,42.0,30.23,SW,225,4.0,4.0,75,0.00,CLR,,0.00,WeatherDisplay:10.37,2013-04-29 00:37:00,
2013-04-28 20:42:00,49.6,42.0,30.22,SSW,202,3.6,4.6,75,0.00,CLR,,0.00,WeatherDisplay:10.37,2013-04-29 00:42:00,
2013-04-28 20:47:00,49.5,41.9,30.22,South,180,1.1,1.1,75,0.00,CLR,,0.00,WeatherDisplay:10.37,2013-04-29 00:47:00,
2013-04-28 20:52:00,49.3,41.7,30.22,SSE,158,0.5,1.1,75,0.00,CLR,,0.00,WeatherDisplay:10.37,2013-04-29 00:52:00,
2013-04-28 20:57:00,49.3,42.0,30.22,South,180,1.8,2.3,76,0.00,CLR,,0.00,WeatherDisplay:10.37,2013-04-29 00:57:00,
2013-04-28 21:02:00,49.1,41.9,30.22,SSW,202,1.6,1.6,76,0.00,CLR,,0.00,WeatherDisplay:10.37,2013-04-29 01:02:00,
2013-04-28 21:07:00,48.9,41.7,30.22,SSW,202,1.1,2.3,76,0.00,CLR,,0.00,WeatherDisplay:10.37,2013-04-29 01:07:00,
2013-04-28 21:12:00,48.7,41.5,30.22,SSW,202,0.5,1.1,76,0.00,CLR,,0.00,WeatherDisplay:10.37,2013-04-29 01:12:00,
2013-04-28 21:17:00,48.6,41.7,30.22,SSW,202,1.1,1.1,77,0.00,CLR,,0.00,WeatherDisplay:10.37,2013-04-29 01:17:00,
2013-04-28 21:22:00,48.6,41.7,30.22,SW,225,0.5,1.1,77,0.00,CLR,,0.00,WeatherDisplay:10.37,2013-04-29 01:22:00,
2013-04-28 21:27:00,48.4,41.5,30.22,SSW,202,1.6,2.3,77,0.00,CLR,,0.00,WeatherDisplay:10.37,2013-04-29 01:27:00,
2013-04-28 21:32:00,48.2,41.3,30.22,South,180,1.8,2.3,77,0.00,CLR,,0.00,WeatherDisplay:10.37,2013-04-29 01:32:00,
2013-04-28 21:37:00,48.0,41.2,30.22,SSW,202,0.9,1.1,77,0.00,CLR,,0.00,WeatherDisplay:10.37,2013-04-29 01:37:00,
2013-04-28 21:42:00,47.8,41.0,30.22,South,180,0.7,1.1,77,0.00,CLR,,0.00,WeatherDisplay:10.37,2013-04-29 01:42:00,
2013-04-28 21:47:00,47.7,40.8,30.22,SW,225,0.5,1.1,77,0.00,CLR,,0.00,WeatherDisplay:10.37,2013-04-29 01:47:00,
2013-04-28 21:52:00,47.5,41.0,30.22,SW,225,0.9,1.1,78,0.00,CLR,,0.00,WeatherDisplay:10.37,2013-04-29 01:52:00,
2013-04-28 21:57:00,47.1,40.6,30.22,SSW,202,0.0,0.0,78,0.00,CLR,,0.00,WeatherDisplay:10.37,2013-04-29 01:57:00,
2013-04-28 22:02:00,46.9,40.1,30.22,SSE,158,0.5,0.5,77,0.00,CLR,,0.00,WeatherDisplay:10.37,2013-04-29 02:02:00,
2013-04-28 22:07:00,46.8,39.9,30.23,South,180,0.0,0.0,77,0.00,CLR,,0.00,WeatherDisplay:10.37,2013-04-29 02:07:00,
2013-04-28 22:12:00,46.4,39.6,30.22,South,180,0.0,0.0,77,0.00,CLR,,0.00,WeatherDisplay:10.37,2013-04-29 02:12:00,
2013-04-28 22:17:00,46.2,39.7,30.22,South,180,0.0,0.0,78,0.00,CLR,,0.00,WeatherDisplay:10.37,2013-04-29 02:17:00,
2013-04-28 22:22:00,46.0,39.6,30.23,South,180,0.0,0.0,78,0.00,CLR,,0.00,WeatherDisplay:10.37,2013-04-29 02:22:00,
2013-04-28 22:27:00,45.7,39.2,30.22,South,180,0.0,0.0,78,0.00,CLR,,0.00,WeatherDisplay:10.37,2013-04-29 02:27:00,
2013-04-28 22:32:00,45.5,39.4,30.23,South,180,0.0,0.0,79,0.00,CLR,,0.00,WeatherDisplay:10.37,2013-04-29 02:32:00,
2013-04-28 22:37:00,45.3,39.2,30.23,South,180,0.0,0.0,79,0.00,CLR,,0.00,WeatherDisplay:10.37,2013-04-29 02:37:00,
2013-04-28 22:42:00,45.1,39.0,30.23,South,180,0.0,0.0,79,0.00,CLR,,0.00,WeatherDisplay:10.37,2013-04-29 02:42:00,
2013-04-28 22:47:00,45.0,38.8,30.23,SSW,202,0.0,0.0,79,0.00,CLR,,0.00,WeatherDisplay:10.37,2013-04-29 02:47:00,
2013-04-28 22:52:00,44.8,38.7,30.23,SSW,202,0.0,0.0,79,0.00,CLR,,0.00,WeatherDisplay:10.37,2013-04-29 02:52:00,
2013-04-28 22:57:00,44.6,38.8,30.23,SSW,202,0.0,0.0,80,0.00,CLR,,0.00,WeatherDisplay:10.37,2013-04-29 02:57:00,
2013-04-28 23:02:00,44.4,38.6,30.23,SSW,202,0.0,0.0,80,0.00,CLR,,0.00,WeatherDisplay:10.37,2013-04-29 03:02:00,
2013-04-28 23:07:00,44.2,38.5,30.23,SSW,202,0.0,0.0,80,0.00,CLR,,0.00,WeatherDisplay:10.37,2013-04-29 03:07:00,
2013-04-28 23:12:00,44.2,38.5,30.23,SSW,202,0.0,0.0,80,0.00,CLR,,0.00,WeatherDisplay:10.37,2013-04-29 03:12:00,
2013-04-28 23:17:00,44.1,38.6,30.23,SSW,202,0.0,0.0,81,0.00,CLR,,0.00,WeatherDisplay:10.37,2013-04-29 03:17:00,
2013-04-28 23:22:00,43.9,38.4,30.22,SSW,202,0.0,0.0,81,0.00,CLR,,0.00,WeatherDisplay:10.37,2013-04-29 03:22:00,
2013-04-28 23:27:00,43.7,38.3,30.23,SSW,202,0.0,0.0,81,0.00,CLR,,0.00,WeatherDisplay:10.37,2013-04-29 03:27:00,
2013-04-28 23:32:00,43.5,38.1,30.23,SSW,202,0.0,0.0,81,0.00,CLR,,0.00,WeatherDisplay:10.37,2013-04-29 03:32:00,
2013-04-28 23:37:00,43.5,38.1,30.23,SSW,202,0.0,0.0,81,0.00,CLR,,0.00,WeatherDisplay:10.37,2013-04-29 03:37:00,
2013-04-28 23:42:00,43.5,38.1,30.23,SSW,202,0.0,0.0,81,0.00,CLR,,0.00,WeatherDisplay:10.37,2013-04-29 03:42:00,
2013-04-28 23:47:00,43.3,37.9,30.22,SSW,202,0.0,0.0,81,0.00,CLR,,0.00,WeatherDisplay:10.37,2013-04-29 03:47:00,
2013-04-28 23:52:00,43.2,37.7,30.23,SSW,202,0.0,0.0,81,0.00,CLR,,0.00,WeatherDisplay:10.37,2013-04-29 03:52:00,
2013-04-28 23:57:00,43.2,38.0,30.23,SSW,202,0.0,0.0,82,0.00,CLR,,0.00,WeatherDisplay:10.37,2013-04-29 03:57:00,